Location: Biltmore Gardens
(41.6070°N, 83.4666°W)
Time: 13:48:49
(UTC+00:00)

Cosmos 1110 Rocket - Pass Details

Date: 14 July 2020
Orbit: 752 x 782 km, 74.0° (Epoch: 05 August)

Event Time Altitude Azimuth Distance (km) Brightness Sun altitude
Rises 04:37:30 0° 342° (NNW) 3,261 8.6 -25.2°
Reaches altitude 10° 04:39:54 10° 345° (NNW) 2,334 7.6 -25.3°
Maximum altitude 04:45:11 69° 69° (ENE) 834 4.1 -25.5°
Enters shadow 04:45:38 66° 102° (ESE) 853 4.0 -25.6°
